Wetbulb
59.13 57.78 57.33 59.61 58.78 56.92 56.66 56.24 57.21 57.82 57.83 58.02 57.56 57.13 57.74 58.17 57.43 56.44 56.28 55.45 55.59 55.61 54.68 55.04 55.46 54.72 54.91 56.86 59.54 60.58 60.26 59.87
58.64 58.19 58.74 59.86 59.03 57.29 56.85 54.48 54.32 54.38 54.72 54.30 54.49 53.45 53.79 53.27 53.58 53.85 53.03 53.61 54.09 54.63 53.90 54.28 54.43 53.87 54.44 55.48 54.96 55.76 56.17 58.03
57.92 58.32 59.08 60.23 59.92 58.86 57.81 56.18 54.27 54.39 54.73 55.17 54.39 53.79 53.11 53.06 52.24 51.71 52.23 52.40 52.87 52.95 53.43 52.89 53.59 52.75 53.48 54.14 54.59 52.71 52.13 53.27
58.07 58.10 58.89 59.67 60.88 60.29 59.12 58.53 56.81 56.79 56.71 55.08 53.50 51.88 51.41 51.02 50.78 50.56 50.43 50.72 51.21 51.93 52.41 52.44 52.56 52.12 51.25 52.46 53.22 53.04 50.74 51.51
57.99 57.98 58.23 58.69 60.25 61.95 61.25 58.67 57.62 55.95 55.08 53.64 52.44 51.02 49.18 50.05 49.73 49.91 49.25 49.92 49.44 50.26 50.87 51.62 51.64 51.55 51.60 51.30 51.93 52.26 52.81 49.39
57.42 57.19 57.68 58.22 60.01 60.39 60.47 59.52 58.39 56.94 55.86 54.40 52.62 50.44 48.98 48.51 48.30 48.18 48.34 48.99 49.13 48.31 49.92 50.69 50.81 50.37 50.88 50.97 51.26 50.85 50.87 49.70
58.07 57.93 58.10 57.83 59.36 60.38 60.28 59.44 58.30 57.50 56.26 54.67 52.90 49.96 48.14 47.40 48.11 47.56 47.71 47.01 47.55 48.33 48.85 49.43 49.66 49.62 49.99 50.04 50.76 50.61 50.15 50.12
57.56 56.50 56.11 56.28 57.01 59.06 59.38 58.84 57.39 56.95 56.25 54.71 53.39 51.94 50.42 49.18 48.18 48.01 47.92 47.20 47.34 48.18 49.17 49.15 48.49 49.54 49.88 49.95 49.96 49.69 49.50 48.98
57.39 56.75 55.84 55.64 55.86 57.70 58.31 57.72 56.63 56.39 55.90 54.28 53.47 51.61 50.72 50.29 50.48 49.90 50.16 49.48 49.22 49.87 49.22 49.09 49.08 48.98 49.13 49.54 48.94 48.83 49.59 48.98
57.15 56.89 55.95 55.68 55.46 56.08 56.99 56.79 56.10 55.76 55.13 54.00 52.42 51.78 51.10 50.61 51.54 51.75 50.88 50.90 49.60 50.14 50.03 49.42 48.93 48.62 48.72 49.09 48.25 48.25 48.51 48.42
56.95 56.68 55.92 55.62 55.48 56.01 56.37 56.36 55.33 55.18 54.78 53.83 52.24 51.48 51.28 51.39 51.63 50.74 50.64 50.74 50.23 49.87 49.61 49.34 48.94 48.66 48.41 48.68 48.00 47.72 47.50 47.26
56.51 56.72 56.10 55.68 55.62 55.34 55.11 54.93 54.67 54.34 54.09 53.22 52.03 51.08 50.97 51.27 50.78 50.78 50.71 50.52 50.18 49.54 49.24 48.87 48.21 47.85 47.85 47.25 46.75 46.64 46.06 46.27
56.39 56.51 55.73 55.07 54.68 54.50 54.01 54.35 53.88 53.69 53.30 52.37 51.38 51.10 50.74 50.35 50.13 50.16 50.59 49.75 50.30 49.45 48.81 48.06 47.49 47.32 47.05 45.97 45.24 45.49 45.09 44.70
55.91 55.74 54.81 54.32 54.17 53.91 53.58 53.61 53.27 53.01 52.41 51.39 50.76 50.19 49.77 49.60 49.56 49.69 49.65 49.39 49.56 49.46 48.79 47.96 47.28 47.14 46.02 45.52 45.17 44.59 44.38 44.50
55.19 55.06 54.60 54.34 53.95 53.72 53.28 52.93 53.14 52.34 51.49 50.52 49.78 49.34 48.96 48.91 48.96 49.26 49.41 49.57 49.08 48.82 49.04 48.17 47.82 46.97 45.51 44.97 44.92 45.01 44.80 44.51
54.41 54.41 54.26 53.95 53.66 53.51 53.19 52.79 52.45 51.95 50.64 49.70 49.17 49.41 49.48 49.61 49.17 49.20 49.50 49.45 49.39 49.25 48.93 48.21 47.64 47.28 45.58 45.49 44.85 44.54 43.84 43.80
53.97 54.30 54.20 53.58 53.30 53.01 52.88 52.30 51.78 51.71 50.23 49.49 49.71 49.47 49.19 49.19 49.32 49.17 49.24 49.28 49.01 48.90 48.20 47.81 47.31 45.72 35.52 36.77 38.92 45.00 44.23 43.50
53.38 53.77 54.07 53.96 53.81 53.72 52.59 52.34 52.10 50.88 49.84 49.58 49.54 49.38 48.66 48.75 48.88 48.86 48.53 48.68 49.14 48.30 48.27 48.06 47.45 46.25 36.59 36.67 36.57 44.16 43.93 43.65
53.73 54.50 54.73 54.85 54.80 54.21 53.84 53.00 51.44 49.97 49.26 49.09 49.61 49.26 48.55 48.59 48.31 48.17 48.56 48.97 48.79 48.31 48.13 48.27 48.01 45.77 36.40 36.47 36.11 42.33 44.46 43.88
MSLP
1016.17 1017.29 1018.09 1018.60 1019.57 1020.09 1019.73 1020.16 1020.02 1020.47 1020.39 1020.24 1020.72 1020.77 1020.61 1020.96 1021.29 1021.68 1021.72 1021.74 1021.72 1021.24 1021.52 1021.52 1021.10 1021.00 1021.04 1020.72 1020.22 1020.26 1019.95 1019.69
1015.22 1016.27 1017.22 1017.87 1018.95 1019.36 1019.89 1020.56 1020.81 1020.78 1020.86 1020.72 1020.78 1021.34 1021.61 1022.33 1022.54 1022.42 1022.57 1022.45 1022.35 1021.97 1021.69 1021.70 1021.82 1021.98 1021.95 1021.50 1021.12 1021.00 1021.02 1020.85
1014.42 1015.33 1016.17 1016.97 1018.02 1018.83 1019.73 1020.64 1020.99 1020.98 1021.16 1020.67 1020.56 1021.72 1021.75 1022.58 1023.09 1023.14 1023.26 1023.12 1022.92 1023.05 1022.52 1022.57 1022.48 1022.71 1022.61 1022.27 1021.91 1021.28 1021.77 1021.84
1013.70 1014.69 1015.54 1016.42 1017.20 1018.14 1019.05 1019.89 1020.39 1020.44 1020.79 1020.98 1021.94 1021.99 1022.05 1022.56 1022.83 1023.30 1023.91 1023.75 1023.60 1023.95 1023.65 1023.24 1023.26 1023.30 1023.10 1023.00 1022.60 1022.25 1021.88 1022.16
1012.87 1013.90 1014.81 1015.68 1016.43 1017.20 1018.10 1019.26 1019.92 1020.84 1020.87 1020.87 1021.30 1021.61 1022.23 1022.91 1023.26 1023.66 1024.10 1024.44 1024.48 1024.75 1024.39 1024.01 1024.08 1023.93 1023.78 1023.82 1023.48 1023.11 1022.71 1022.81
1011.77 1013.03 1014.05 1015.00 1015.84 1016.71 1017.70 1018.78 1019.50 1020.38 1020.71 1021.16 1021.54 1022.25 1023.18 1023.78 1024.04 1024.20 1024.88 1025.23 1025.07 1025.14 1025.40 1025.04 1024.78 1024.39 1024.84 1024.74 1024.42 1024.12 1023.89 1023.72
1011.11 1012.57 1013.54 1014.37 1015.20 1016.12 1017.16 1018.09 1018.80 1019.79 1020.51 1021.25 1021.72 1022.66 1023.34 1023.96 1024.16 1024.69 1024.99 1025.32 1025.40 1025.61 1025.58 1025.53 1025.35 1025.28 1025.47 1025.30 1025.24 1025.14 1025.12 1025.19
1010.28 1011.69 1012.85 1013.79 1014.80 1015.76 1016.81 1017.66 1018.46 1019.59 1020.41 1021.18 1021.81 1022.64 1023.17 1023.65 1024.27 1024.61 1024.96 1025.42 1025.87 1025.89 1025.65 1025.82 1026.17 1025.75 1025.98 1025.94 1025.76 1026.01 1026.09 1025.88
1009.47 1010.93 1012.37 1013.46 1014.67 1015.63 1016.53 1017.32 1018.12 1019.25 1020.16 1021.07 1021.83 1022.59 1022.94 1023.34 1023.64 1024.26 1024.60 1025.20 1025.69 1025.62 1025.66 1026.41 1026.37 1026.34 1026.53 1026.31 1026.15 1026.39 1026.52 1026.34
1008.71 1010.30 1011.92 1013.17 1014.39 1015.48 1016.37 1017.07 1017.97 1019.12 1020.06 1021.04 1021.76 1022.38 1022.64 1023.02 1023.72 1024.35 1024.59 1024.94 1025.42 1025.79 1025.82 1026.27 1026.52 1027.10 1027.01 1026.57 1026.74 1026.75 1026.61 1026.83
1008.24 1009.67 1011.36 1012.77 1014.23 1015.37 1016.29 1016.86 1017.68 1018.90 1019.95 1020.88 1021.68 1022.22 1022.71 1023.29 1023.80 1024.09 1024.60 1024.89 1025.35 1025.85 1026.09 1026.33 1026.56 1027.06 1027.19 1026.99 1026.78 1026.95 1027.10 1027.32
1007.62 1009.13 1010.94 1012.52 1013.92 1015.08 1016.09 1016.72 1017.58 1018.78 1019.83 1020.75 1021.53 1022.20 1022.85 1023.39 1023.71 1024.13 1024.71 1025.18 1025.49 1025.97 1026.30 1026.43 1026.75 1026.95 1027.17 1027.38 1027.40 1027.39 1027.41 1027.62
1007.14 1008.74 1010.52 1012.09 1013.51 1014.75 1015.78 1016.52 1017.40 1018.53 1019.59 1020.46 1021.34 1022.14 1022.80 1023.33 1023.80 1024.32 1024.82 1025.18 1025.45 1025.95 1026.35 1026.55 1026.86 1026.92 1027.29 1027.71 1027.85 1027.71 1027.74 1027.89
1006.71 1008.39 1010.06 1011.68 1013.07 1014.31 1015.30 1016.22 1017.19 1018.33 1019.23 1020.29 1021.26 1022.09 1022.71 1023.25 1023.80 1024.36 1024.81 1025.21 1025.52 1025.87 1026.20 1026.54 1026.70 1027.04 1027.62 1027.94 1027.94 1027.99 1028.13 1028.18
1006.35 1007.94 1009.55 1011.31 1012.66 1013.86 1014.85 1015.87 1016.87 1017.98 1018.93 1020.05 1021.06 1021.96 1022.69 1023.28 1023.81 1024.25 1024.65 1025.02 1025.39 1025.77 1026.08 1026.35 1026.85 1027.23 1027.59 1027.79 1027.93 1028.13 1028.14 1028.09
1005.94 1007.34 1008.97 1010.74 1012.10 1013.36 1014.43 1015.48 1016.50 1017.62 1018.64 1019.67 1020.79 1021.66 1022.35 1022.94 1023.48 1024.03 1024.44 1024.87 1025.15 1025.44 1025.84 1026.41 1026.84 1027.21 1027.44 1027.83 1027.97 1028.07 1028.06 1027.97
1005.47 1006.92 1008.44 1009.93 1011.30 1012.60 1013.82 1014.97 1016.09 1017.23 1018.21 1019.15 1020.26 1021.14 1021.79 1022.54 1023.22 1023.76 1024.28 1024.66 1024.96 1025.33 1025.82 1026.28 1026.77 1026.78 1029.07 1029.28 1029.13 1028.00 1028.01 1028.01
1004.98 1006.16 1007.55 1009.10 1010.48 1011.92 1013.14 1014.39 1015.60 1016.70 1017.67 1018.56 1019.59 1020.56 1021.32 1022.20 1022.87 1023.46 1024.04 1024.46 1024.86 1025.26 1025.67 1026.13 1026.66 1027.30 1029.03 1029.35 1029.52 1028.14 1028.06 1028.14
1004.66 1005.86 1007.15 1008.50 1010.02 1011.50 1012.79 1013.98 1015.14 1016.18 1017.05 1017.95 1019.05 1020.03 1020.86 1021.78 1022.46 1023.06 1023.71 1024.21 1024.64 1025.06 1025.53 1026.01 1026.56 1027.41 1028.81 1029.33 1029.58 1028.71 1027.94 1027.99
Wind_Speed
15 14 12 12 11 7 9 7 9 7 6 7 6 6 7 7 7 7 9 8 8 6 7 8 7 7 7 7 7 6 7 5
15 15 16 14 13 11 8 7 7 5 3 5 6 6 6 7 6 10 10 9 9 8 7 7 8 8 8 7 7 8 7 6
16 15 15 15 14 13 11 9 8 8 7 5 7 5 7 6 7 7 8 8 9 8 8 8 8 7 9 9 9 6 8 8
17 17 15 15 15 15 14 12 10 5 8 9 6 7 6 5 6 7 8 9 10 9 9 8 8 7 8 9 9 11 7 8
18 17 17 16 14 14 14 14 12 9 7 7 7 5 6 5 6 7 7 9 9 9 8 8 9 8 10 8 9 9 9 9
19 18 17 16 15 14 14 14 13 11 9 10 7 8 7 5 6 8 7 6 8 10 7 7 7 8 9 10 10 11 8 8
19 18 17 16 15 16 15 15 13 12 10 10 10 10 10 7 7 6 5 5 6 6 8 8 9 9 8 8 10 11 9 8
20 20 18 17 16 16 14 15 14 13 12 10 10 10 10 10 9 6 7 5 4 6 7 7 6 8 8 8 8 8 8 7
21 21 19 18 17 17 16 16 14 14 13 11 10 12 8 8 7 8 6 6 6 8 9 7 8 8 6 6 7 6 7 7
23 22 19 18 18 17 16 16 15 14 13 12 11 11 11 9 10 8 7 8 7 8 8 8 8 6 5 7 5 6 6 6
22 21 21 18 17 16 16 16 16 15 14 12 11 11 10 11 10 9 9 8 10 8 8 8 7 6 5 5 5 7 6 4
22 21 20 19 18 17 16 15 16 15 14 13 12 12 11 11 9 10 9 9 9 8 7 7 6 6 5 5 5 5 5 5
22 21 22 20 19 18 17 16 16 15 15 14 13 12 12 11 10 10 10 9 9 8 7 7 6 6 5 4 4 5 5 5
21 22 21 20 19 18 18 17 16 16 15 15 14 13 13 12 11 10 10 10 9 9 8 7 6 5 4 3 4 4 4 5
21 21 22 21 20 19 19 18 17 17 16 16 15 14 13 12 11 11 11 10 10 9 8 7 6 5 5 3 3 2 3 4
22 23 22 22 21 20 19 19 18 18 17 17 16 15 14 13 13 12 11 10 10 9 8 8 6 5 3 1 2 2 3 4
23 23 24 24 23 21 20 19 19 18 18 17 16 16 15 14 13 13 12 11 10 9 9 8 7 4 9 5 5 1 3 4
23 24 23 23 23 22 21 20 19 19 18 17 17 16 15 15 14 13 13 12 10 10 9 9 8 8 9 4 2 5 3 4
21 20 20 22 22 22 20 20 19 19 19 18 17 17 16 15 15 14 13 11 11 10 9 9 8 6 12 7 3 6 3 3
Wind_Direction
165 164 161 158 150 144 127 137 103 101 93 90 74 63 64 57 56 58 35 44 36 49 61 39 31 29 42 31 38 36 18 15
160 159 162 159 162 152 140 124 125 112 129 114 123 99 85 63 53 47 45 38 38 29 59 52 59 44 39 26 55 36 38 13
167 166 167 169 166 165 148 153 157 163 175 135 85 91 86 85 74 64 54 47 41 48 51 53 36 64 50 46 21 71 60 31
173 174 178 181 179 173 168 168 171 144 132 126 122 118 115 128 97 73 57 58 54 52 51 55 54 52 57 44 40 21 62 65
179 181 182 186 183 183 172 168 159 154 144 106 112 118 122 75 96 84 72 57 61 55 54 64 63 55 48 49 45 47 34 40
181 184 183 185 171 171 171 166 166 156 136 140 139 123 118 115 107 103 98 72 54 54 44 48 49 59 58 53 46 43 46 47
183 183 182 183 173 166 173 173 165 160 149 144 139 142 145 143 128 132 93 89 85 78 69 62 60 63 56 56 57 49 50 38
183 182 181 179 174 172 173 176 165 162 159 152 147 152 149 142 146 137 141 124 108 92 73 59 63 69 62 59 63 61 51 47
189 183 182 181 177 175 178 179 166 165 158 155 153 158 157 152 159 151 148 142 120 104 90 82 68 68 64 68 63 60 49 49
189 184 182 179 178 177 180 179 167 166 164 158 161 170 156 156 151 154 147 134 128 117 106 93 77 71 63 70 65 55 47 35
187 187 180 181 180 174 178 180 169 167 165 165 165 166 163 151 157 152 153 138 124 128 116 111 95 78 62 56 70 50 43 32
184 188 176 182 177 173 176 179 166 167 165 170 165 163 160 161 158 152 144 143 144 141 127 120 112 95 76 66 64 52 46 36
185 185 175 179 177 172 175 176 169 168 169 169 166 163 163 167 157 157 149 151 149 145 147 132 123 97 77 70 54 45 40 28
178 179 176 179 178 176 174 175 171 168 170 166 167 167 168 169 160 156 164 157 156 156 152 146 128 113 120 106 68 54 41 32
178 178 177 181 180 178 174 174 171 170 168 169 167 171 169 168 167 165 167 166 162 160 161 148 140 150 137 117 95 57 27 40
180 180 177 181 180 179 176 174 171 170 170 172 170 172 174 171 169 170 169 172 172 168 159 158 163 163 135 118 127 53 11 11
182 181 180 183 182 180 177 174 171 172 172 175 171 172 173 173 173 175 172 178 173 172 171 170 172 179 105 67 339 1 348 359
183 185 183 183 182 180 178 174 170 174 175 176 173 174 176 175 176 177 177 180 174 178 180 180 185 136 140 142 329 284 317 355
186 184 184 183 179 180 176 174 172 176 177 177 174 176 178 176 179 180 180 180 181 182 186 189 186 136 152 173 218 273 292 319